This is the latest recevied weather packets stored in our database for station/object KE1THD. If no packets are shown the sender has not sent any weather packets the latest 10 day(s).
| Time | Temp. | Humidity | Pressure | Rain* | Wind** | Luminosity | Snow |
|---|---|---|---|---|---|---|---|
| 1777818377 | 11.67° C | 61% | 1012.5 hPa | 0 mm | - | 99 W/m² | - |
| 1777818073 | 11.67° C | 61% | 1012.5 hPa | 0 mm | - | 164 W/m² | - |
| 1777817770 | 11.11° C | 62% | 1012.2 hPa | 0 mm | - | 282 W/m² | - |
| 1777817468 | 10.56° C | 65% | 1012.3 hPa | 0 mm | - | 189 W/m² | - |
| 1777817164 | 10.56° C | 65% | 1012.4 hPa | 0 mm | - | 137 W/m² | - |
| 1777816862 | 10.56° C | 66% | 1012.8 hPa | 0 mm | - | 77 W/m² | - |
| 1777816558 | 10° C | 67% | 1012.9 hPa | 0 mm | - | 90 W/m² | - |
| 1777816255 | 10° C | 68% | 1012.9 hPa | 0 mm | - | 65 W/m² | - |
| 1777815952 | 10° C | 70% | 1013.3 hPa | 0 mm | - | 64 W/m² | - |
| 1777815650 | 10° C | 70% | 1013.5 hPa | 0 mm | - | 48 W/m² | - |
| 1777815347 | 10° C | 69% | 1013.4 hPa | 0 mm | - | 48 W/m² | - |
| 1777815044 | 10° C | 70% | 1013.3 hPa | 0 mm | - | 67 W/m² | - |
| 1777814740 | 10° C | 68% | 1013.5 hPa | 0 mm | - | 77 W/m² | - |
| 1777814437 | 10° C | 68% | 1013.6 hPa | 0 mm | - | 51 W/m² | - |
| 1777814134 | 10° C | 67% | 1013.3 hPa | 0 mm | - | 21 W/m² | - |
| 1777813831 | 10° C | 66% | 1013.4 hPa | 0 mm | - | 54 W/m² | - |
| 1777813528 | 10° C | 65% | 1013.8 hPa | 0 mm | - | 32 W/m² | - |
| 1777813226 | 10° C | 65% | 1013.5 hPa | 0 mm | - | 39 W/m² | - |
| 1777812924 | 10° C | 65% | 1013.5 hPa | 0 mm | - | 46 W/m² | - |
| 1777812621 | 10° C | 63% | 1013.7 hPa | 0 mm | - | 30 W/m² | - |
| 1777812317 | 10° C | 62% | 1013.9 hPa | 0 mm | - | 19 W/m² | - |
| 1777812015 | 10° C | 60% | 1013.9 hPa | 0 mm | - | 18 W/m² | - |
| 1777811714 | 10° C | 62% | 1013.4 hPa | 0 mm | - | 46 W/m² | - |
| 1777811410 | 10.56° C | 61% | 1013.8 hPa | 0 mm | - | 27 W/m² | - |
| 1777811106 | 10° C | 59% | 1013.5 hPa | 0 mm | - | 26 W/m² | - |
* Rain latest hour (hover to see other rain measurements)
** Current wind speed in m/s (hover to see current wind gust speed)